WW3TRG Weather Reports


time (UTC)temp
F
wind
direction
speed
knots
gust
knots
rain 1hr
in
rain 24hr
in
rain mn
in
humidity
%
barometer
mb
20260504204527 74 200 0.9 4.3 0.00 0.00 0.00 38 1008.1
20260504204026 73 152 2.6 7.8 0.00 0.00 0.00 38 1008.3
20260504203524 74 131 2.6 7.0 0.00 0.00 0.00 37 1008.5
20260504203021 75 198 2.6 4.3 0.00 0.00 0.00 38 1008.2
20260504202516 75 0 0.0 3.5 0.00 0.00 0.00 37 1008.3
20260504202014 74 205 10.4 10.4 0.00 0.00 0.00 39 1008.2
20260504201511 75 209 0.0 6.1 0.00 0.00 0.00 37 1008.4
20260504201009 74 315 1.7 5.2 0.00 0.00 0.00 38 1008.7
20260504200504 74 131 0.0 4.3 0.00 0.00 0.00 38 1008.2
20260504200001 74 186 2.6 7.0 0.00 0.00 0.00 37 1008.4
20260504195456 74 180 0.0 3.5 0.00 0.00 0.00 38 1008.3
20260504194953 73 172 1.7 9.6 0.00 0.00 0.00 38 1008.6
20260504194449 73 201 0.0 9.6 0.00 0.00 0.00 39 1008.6
20260504193945 73 203 3.5 15.6 0.00 0.00 0.00 37 1008.7
20260504193443 74 191 1.7 2.6 0.00 0.00 0.00 37 1008.7
20260504192942 74 310 0.0 5.2 0.00 0.00 0.00 41 1008.8
20260504192438 74 257 0.9 3.5 0.00 0.00 0.00 38 1008.7
20260504191937 73 194 2.6 5.2 0.00 0.00 0.00 40 1008.7
20260504191435 73 311 0.0 6.1 0.00 0.00 0.00 39 1008.8
20260504190930 71 169 1.7 4.3 0.00 0.00 0.00 43 1008.9
20260504190426 71 290 0.0 5.2 0.00 0.00 0.00 40 1008.7
20260504185923 71 354 0.9 5.2 0.00 0.00 0.00 40 1008.9
20260504185421 73 278 1.7 3.5 0.00 0.00 0.00 39 1008.8
20260504184916 73 225 1.7 9.6 0.00 0.00 0.00 38 1009.1
20260504184412 74 284 2.6 4.3 0.00 0.00 0.00 43 1009.1
20260504183908 74 169 0.0 5.2 0.00 0.00 0.00 44 1009.2
20260504183406 72 303 1.7 6.1 0.00 0.00 0.00 39 1009.2
20260504182904 73 286 1.7 7.0 0.00 0.00 0.00 39 1009.3
20260504182400 73 166 0.0 5.2 0.00 0.00 0.00 37 1009.3
20260504181856 72 199 5.2 7.8 0.00 0.00 0.00 39 1009.5
20260504181354 72 197 7.8 9.6 0.00 0.00 0.00 39 1009.4
20260504180853 72 60 0.0 13.9 0.00 0.00 0.00 39 1009.4
20260504180351 72 215 0.0 6.1 0.00 0.00 0.00 41 1009.6
20260504175849 71 320 0.0 3.5 0.00 0.00 0.00 42 1009.9
20260504175345 71 142 5.2 5.2 0.00 0.00 0.00 39 1009.8
20260504174844 71 286 0.9 6.1 0.00 0.00 0.00 41 1009.8
20260504174341 71 211 2.6 7.8 0.00 0.00 0.00 40 1009.9
20260504173838 70 311 2.6 6.1 0.00 0.00 0.00 40 1009.9
20260504173335 71 286 0.0 6.1 0.00 0.00 0.00 43 1010.0
20260504172831 70 204 3.5 8.7 0.00 0.00 0.00 39 1010.2
20260504172328 70 276 0.9 8.7 0.00 0.00 0.00 42 1010.0
20260504171824 70 180 2.6 11.3 0.00 0.00 0.00 39 1010.4
20260504171321 70 236 3.5 5.2 0.00 0.00 0.00 40 1010.3
20260504170819 70 185 0.9 4.3 0.00 0.00 0.00 40 1010.6
20260504170315 69 188 2.6 5.2 0.00 0.00 0.00 41 1010.6
20260504160233 68 139 1.7 4.3 0.00 0.00 0.00 40 1011.4
20260504150659 64 177 3.5 4.3 0.00 0.00 0.00 41 1011.9
20260504150156 64 277 2.6 5.2 0.00 0.00 0.00 45 1012.2
20260504141125 61 236 3.5 4.3 0.00 0.00 0.00 43 1012.3
20260504140622 60 90 0.9 7.8 0.00 0.00 0.00 45 1012.4
20260504140117 60 66 0.9 3.5 0.00 0.00 0.00 45 1012.4
20260504130545 58 185 1.7 1.7 0.00 0.00 0.00 52 1012.7
20260504110432 35 95 1.7 2.6 0.00 0.00 0.00 99 1013.3
20260504100355 33 151 0.0 1.7 0.00 0.00 0.00 99 1012.9
20260504081748 34 105 0.9 1.7 0.00 0.00 0.00 98 1013.4
20260504081245 34 103 0.9 0.9 0.00 0.00 0.00 97 1013.1
20260504080741 35 123 0.0 1.7 0.00 0.00 0.00 97 1013.2
20260504080238 35 109 0.0 1.7 0.00 0.00 0.00 97 1013.0
20260504070205 35 106 0.0 0.9 0.00 0.00 0.00 96 1013.2
20260504060126 37 117 0.0 0.9 0.00 0.00 0.00 93 1013.1
20260504050554 40 90 0.0 0.9 0.00 0.00 0.00 88 1012.7
20260504045548 41 126 0.9 0.9 0.00 0.00 0.00 87 1012.9
20260504045043 41 114 0.0 0.0 0.00 0.00 0.00 87 1012.8
20260504044541 41 165 0.0 0.0 0.00 0.00 0.00 86 1013.0
20260504044038 42 157 0.0 0.9 0.00 0.00 0.00 84 1013.0
20260504043535 42 162 0.0 1.7 0.00 0.00 0.00 81 1013.1
20260504043032 43 98 0.9 1.7 0.00 0.00 0.00 79 1012.9
20260504042529 43 180 0.0 1.7 0.00 0.00 0.00 78 1012.7
20260504042026 43 180 0.0 0.9 0.00 0.00 0.00 79 1012.7
20260504041522 43 187 0.0 0.9 0.00 0.00 0.00 79 1012.8
20260504041018 43 184 0.0 1.7 0.00 0.00 0.00 80 1012.7
20260504040516 43 190 1.7 1.7 0.00 0.00 0.00 79 1012.5
20260504040012 43 180 0.9 1.7 0.00 0.00 0.00 80 1012.6
20260504035509 43 175 0.0 1.7 0.00 0.00 0.00 78 1012.5
20260504035005 43 166 0.0 1.7 0.00 0.00 0.00 79 1012.6
20260504034503 43 186 0.0 1.7 0.00 0.00 0.00 79 1012.2
20260504034000 43 180 0.9 0.9 0.00 0.00 0.00 79 1012.3
20260504033458 43 180 0.0 0.0 0.00 0.00 0.00 80 1012.4
20260504032955 43 173 0.0 1.7 0.00 0.00 0.00 79 1012.2
20260504032452 44 165 0.0 0.0 0.00 0.00 0.00 78 1012.1
20260504031948 44 187 0.9 1.7 0.00 0.00 0.00 78 1012.3
20260504031445 44 180 0.0 1.7 0.00 0.00 0.00 78 1012.2
20260504030942 44 145 0.9 2.6 0.00 0.00 0.00 78 1012.2
20260504030439 44 163 2.6 2.6 0.00 0.00 0.00 76 1012.1
20260504025935 44 180 0.9 0.9 0.00 0.00 0.00 76 1012.1
20260504025432 45 180 0.0 1.7 0.00 0.00 0.00 78 1012.3
20260504024929 44 185 0.9 1.7 0.00 0.00 0.00 77 1012.1
20260504024426 45 187 0.0 2.6 0.00 0.00 0.00 78 1012.0
20260504023923 45 188 1.7 1.7 0.00 0.00 0.00 76 1012.2
20260504023419 45 184 1.7 1.7 0.00 0.00 0.00 77 1012.0
20260504022915 45 198 1.7 1.7 0.00 0.00 0.00 76 1012.2
20260504022412 45 195 1.7 1.7 0.00 0.00 0.00 76 1012.3
20260504021908 45 195 1.7 1.7 0.00 0.00 0.00 74 1012.2
20260504021406 46 185 1.7 1.7 0.00 0.00 0.00 74 1012.3
20260504020903 46 200 0.0 1.7 0.00 0.00 0.00 74 1012.1
20260504020359 46 194 0.0 1.7 0.00 0.00 0.00 73 1012.1
20260504015855 46 209 0.9 1.7 0.00 0.00 0.00 73 1012.2
20260504015352 46 203 0.0 1.7 0.00 0.00 0.00 75 1012.1
20260504014848 46 197 1.7 1.7 0.00 0.00 0.00 71 1012.1
20260504014344 47 194 0.0 2.6 0.00 0.00 0.00 74 1012.2
20260504013842 47 188 0.0 1.7 0.00 0.00 0.00 72 1012.1
20260504013339 47 172 0.0 0.9 0.00 0.00 0.00 70 1012.1
20260504012836 47 191 0.9 1.7 0.00 0.00 0.00 72 1012.0
20260504012334 47 213 0.0 2.6 0.00 0.00 0.00 70 1012.0
20260504011831 47 187 0.0 1.7 0.00 0.00 0.00 72 1012.0
20260504011327 48 184 1.7 1.7 0.00 0.00 0.00 69 1011.8
20260504010823 48 192 0.9 1.7 0.00 0.00 0.00 68 1011.9
20260504010319 48 175 0.0 0.9 0.00 0.00 0.00 69 1011.9
20260504005816 48 194 0.9 1.7 0.00 0.00 0.00 70 1011.6
20260504005313 48 188 0.0 1.7 0.00 0.00 0.00 68 1011.9
20260504004810 48 201 1.7 1.7 0.00 0.00 0.00 69 1011.7
20260504004308 48 184 1.7 1.7 0.00 0.00 0.00 67 1011.5
20260504003804 48 185 0.9 1.7 0.00 0.00 0.00 70 1011.4
20260504003301 49 174 0.0 1.7 0.00 0.00 0.00 68 1011.4
20260504002757 49 186 0.9 2.6 0.00 0.00 0.00 69 1011.5
20260504002254 50 194 0.0 1.7 0.00 0.00 0.00 67 1011.5
20260504001752 50 148 0.9 1.7 0.00 0.00 0.00 64 1011.2
20260504001249 51 160 0.0 1.7 0.00 0.00 0.00 65 1011.3
20260504000746 51 172 0.0 1.7 0.00 0.00 0.00 64 1011.2
20260504000243 52 206 0.0 1.7 0.00 0.00 0.00 61 1011.2
20260503235741 52 194 0.9 1.7 0.00 0.00 0.00 61 1011.2
20260503235238 53 173 0.9 2.6 0.00 0.00 0.00 58 1010.9
20260503234735 53 188 2.6 2.6 0.00 0.00 0.00 58 1011.0
20260503234233 54 160 0.0 1.7 0.00 0.00 0.00 56 1010.9
20260503233730 55 112 0.0 1.7 0.00 0.00 0.00 52 1010.9
20260503233226 56 144 0.0 1.7 0.00 0.00 0.00 46 1010.7
20260503232723 57 270 0.9 7.0 0.00 0.00 0.00 44 1010.8
20260503232220 56 140 0.0 1.7 0.00 0.00 0.00 47 1010.7
20260503231719 57 279 0.0 0.0 0.00 0.00 0.00 44 1010.9
20260503231215 58 135 0.0 4.3 0.00 0.00 0.00 40 1010.5
20260503230711 58 98 0.9 1.7 0.00 0.00 0.00 43 1010.9
20260503230208 59 200 5.2 9.6 0.00 0.00 0.00 39 1010.7
20260503225705 58 174 0.9 2.6 0.00 0.00 0.00 40 1010.6
20260503225200 59 195 0.9 1.7 0.00 0.00 0.00 43 1010.5
20260503224658 59 103 1.7 3.5 0.00 0.00 0.00 37 1010.5
20260503224156 59 187 3.5 3.5 0.00 0.00 0.00 39 1010.5
20260503223653 60 90 0.0 2.6 0.00 0.00 0.00 37 1010.3
20260503223149 60 270 0.0 3.5 0.00 0.00 0.00 38 1010.4
20260503222647 60 209 0.9 6.1 0.00 0.00 0.00 37 1010.6
20260503222144 59 177 0.0 2.6 0.00 0.00 0.00 36 1010.5
20260503221643 60 220 7.8 7.8 0.00 0.00 0.00 37 1010.3
20260503221139 60 305 1.7 3.5 0.00 0.00 0.00 39 1010.5
20260503220636 61 212 1.7 6.1 0.00 0.00 0.00 35 1010.4
20260503220133 61 347 5.2 5.2 0.00 0.00 0.00 36 1010.5
20260503215630 61 123 0.0 1.7 0.00 0.00 0.00 36 1010.4
20260503215126 60 156 1.7 6.1 0.00 0.00 0.00 34 1010.6
20260503214625 62 47 2.6 2.6 0.00 0.00 0.00 33 1010.3
20260503214121 62 220 2.6 7.8 0.00 0.00 0.00 34 1010.7
20260503213620 61 90 0.9 6.1 0.00 0.00 0.00 33 1010.3
20260503213116 60 15 0.0 8.7 0.00 0.00 0.00 35 1010.2
20260503212614 61 323 1.7 3.5 0.00 0.00 0.00 37 1010.5
20260503212111 61 95 3.5 6.1 0.00 0.00 0.00 35 1010.2
20260503211609 61 153 2.6 12.2 0.00 0.00 0.00 33 1010.2
20260503211104 61 172 2.6 6.1 0.00 0.00 0.00 32 1010.3
20260503210601 62 221 4.3 8.7 0.00 0.00 0.00 32 1010.2
20260503210056 62 248 0.0 8.7 0.00 0.00 0.00 31 1010.3
20260503205553 62 122 2.6 4.3 0.00 0.00 0.00 34 1010.5
20260503205049 61 180 0.0 2.6 0.00 0.00 0.00 34 1010.4